This demonstration page uses our WeatherBlox Daily Observations layout. Learn more.

Hourly Observations for February 11, 2017

Temp ( °F °C ) Dew Point ( °F °C ) Humidity (%) Winds ( mph kmh ) Pressure ( in mb ) Visibility ( mi km ) Precip ( " mm )
12:15 am 00:15 Clear 36 2 16 -9 44 44 undefined N/A 30.03 1017 10 16.09344 0 0
12:35 am 00:35 Clear 36 2 16 -9 44 44 undefined N/A 30.03 1017 10 16.09344 0 0
12:55 am 00:55 Clear 36 2 18 -8 48 48 undefined N/A 30 1016 10 16.09344 0 0
1:15 am 01:15 Clear 36 2 18 -8 48 48 undefined N/A 30 1016 10 16.09344 0 0
1:35 am 01:35 Clear 36 2 18 -8 48 48 undefined N/A 30 1016 10 16.09344 0 0
1:55 am 01:55 Clear 34 1 18 -8 51 51 undefined N/A 30 1016 10 16.09344 0 0
2:15 am 02:15 Clear 34 1 18 -8 51 51 undefined N/A 30 1016 10 16.09344 0 0
2:35 am 02:35 Clear 34 1 18 -8 51 51 undefined N/A 30 1016 10 16.09344 0 0
2:55 am 02:55 Clear 34 1 18 -8 51 51 undefined N/A 30 1016 10 16.09344 0 0
3:15 am 03:15 Clear 34 1 18 -8 51 51 undefined N/A 30 1016 10 16.09344 0 0
3:35 am 03:35 Clear 34 1 18 -8 51 51 undefined N/A 29.97 1015 10 16.09344 0 0
3:55 am 03:55 Clear 32 0 18 -8 55 55 undefined N/A 29.97 1015 10 16.09344 0 0
4:15 am 04:15 Clear 32 0 18 -8 55 55 undefined N/A 29.97 1015 10 16.09344 0 0
4:35 am 04:35 Clear 32 0 19 -7 60 60 undefined N/A 29.97 1015 10 16.09344 0 0
4:55 am 04:55 Clear 32 0 19 -7 60 60 undefined N/A 29.97 1015 10 16.09344 0 0
5:15 am 05:15 Clear 32 0 19 -7 60 60 undefined N/A 29.97 1015 10 16.09344 0 0
5:35 am 05:35 Clear 32 0 21 -6 64 64 undefined N/A 29.97 1015 10 16.09344 0 0
5:55 am 05:55 Clear 32 0 21 -6 64 64 undefined N/A 29.97 1015 10 16.09344 0 0
6:15 am 06:15 Clear 30 -1 21 -6 69 69 undefined N/A 29.97 1015 10 16.09344 0 0
6:35 am 06:35 Clear 32 0 21 -6 64 64 undefined N/A 29.97 1015 10 16.09344 0 0
6:55 am 06:55 Clear 32 0 21 -6 64 64 undefined N/A 29.97 1015 10 16.09344 0 0
7:15 am 07:15 Sunny 30 -1 21 -6 69 69 undefined N/A 29.97 1015 10 16.09344 0 0
7:35 am 07:35 Sunny 30 -1 21 -6 69 69 undefined N/A 29.97 1015 10 16.09344 0 0
7:55 am 07:55 Sunny 32 0 21 -6 64 64 undefined N/A 29.97 1015 10 16.09344 0 0
8:15 am 08:15 Sunny 32 0 21 -6 64 64 undefined N/A 30 1016 10 16.09344 0 0
8:35 am 08:35 Sunny 34 1 23 -5 65 65 undefined N/A 30 1016 10 16.09344 0 0
8:55 am 08:55 Sunny 37 3 23 -5 56 56 undefined N/A 30 1016 10 16.09344 0 0
9:15 am 09:15 Sunny 37 3 25 -4 60 60 undefined N/A 30 1016 10 16.09344 0 0
9:35 am 09:35 Sunny 41 5 25 -4 53 53 undefined N/A 30 1016 10 16.09344 0 0
9:55 am 09:55 Sunny 43 6 25 -4 49 49 undefined N/A 30 1016 10 16.09344 0 0
10:15 am 10:15 Sunny 45 7 27 -3 49 49 undefined N/A 30 1016 10 16.09344 0 0
10:35 am 10:35 Sunny 45 7 27 -3 49 49 undefined N/A 30 1016 10 16.09344 0 0
10:55 am 10:55 Sunny 45 7 28 -2 53 53 undefined N/A 30 1016 10 16.09344 0 0
11:15 am 11:15 Sunny 46 8 28 -2 50 50 undefined N/A 30 1016 10 16.09344 0 0
11:35 am 11:35 Sunny 46 8 30 -1 53 53 undefined N/A 30 1016 10 16.09344 0 0
11:55 am 11:55 Sunny 48 9 30 -1 50 50 undefined N/A 30 1016 10 16.09344 0 0
12:15 pm 12:15 Sunny 50 10 30 -1 47 47 Calm 29.94 1014 10 16.09344 0 0
12:35 pm 12:35 Sunny 50 10 30 -1 47 47 Calm 29.94 1014 10 16.09344 0 0
12:55 pm 12:55 Sunny 52 11 32 0 47 47 undefined N/A 29.94 1014 10 16.09344 0 0
1:15 pm 13:15 Sunny 52 11 32 0 47 47 undefined N/A 29.91 1013 10 16.09344 0 0
1:35 pm 13:35 Sunny 52 11 32 0 47 47 SSW 6 9 29.91 1013 10 16.09344 0 0
1:55 pm 13:55 Sunny 54 12 32 0 44 44 SE 8 13 29.91 1013 10 16.09344 0 0
2:15 pm 14:15 Sunny 52 11 32 0 47 47 SE 8 13 29.91 1013 10 16.09344 0 0
2:35 pm 14:35 Sunny 52 11 32 0 47 47 S 6 9 29.91 1013 10 16.09344 0 0
2:55 pm 14:55 Sunny 54 12 34 1 47 47 undefined N/A 29.91 1013 10 16.09344 0 0
3:15 pm 15:15 Sunny 54 12 34 1 47 47 SSE 3 6 29.94 1014 10 16.09344 0 0
3:35 pm 15:35 Sunny 54 12 34 1 47 47 S 5 7 29.94 1014 10 16.09344 0 0
3:55 pm 15:55 Sunny 54 12 34 1 47 47 S 5 7 29.94 1014 10 16.09344 0 0
4:15 pm 16:15 Sunny 54 12 34 1 47 47 SSE 5 7 29.94 1014 10 16.09344 0 0
4:35 pm 16:35 Sunny 54 12 34 1 47 47 S 5 7 29.94 1014 10 16.09344 0 0
4:55 pm 16:55 Sunny 54 12 36 2 51 51 Calm 29.97 1015 10 16.09344 0 0
5:15 pm 17:15 Sunny 52 11 36 2 54 54 SE 5 7 29.97 1015 10 16.09344 0 0
5:35 pm 17:35 Sunny 52 11 36 2 54 54 undefined N/A 29.97 1015 10 16.09344 0 0
5:55 pm 17:55 Clear 52 11 36 2 54 54 ESE 6 9 29.97 1015 10 16.09344 0 0
6:15 pm 18:15 Clear 50 10 36 2 58 58 undefined N/A 29.97 1015 10 16.09344 0 0
6:35 pm 18:35 Clear 50 10 36 2 58 58 undefined N/A 29.97 1015 10 16.09344 0 0
6:55 pm 18:55 Clear 50 10 36 2 58 58 undefined N/A 29.97 1015 10 16.09344 0 0
7:15 pm 19:15 Clear 46 8 36 2 66 66 undefined N/A 30.03 1017 10 16.09344 0 0
7:35 pm 19:35 Clear 48 9 36 2 62 62 undefined N/A 30.03 1017 10 16.09344 0 0
7:55 pm 19:55 Clear 46 8 36 2 66 66 undefined N/A 30.03 1017 10 16.09344 0 0
8:15 pm 20:15 Clear 45 7 37 3 76 76 undefined N/A 30.03 1017 10 16.09344 0 0
8:35 pm 20:35 Clear 46 8 37 3 71 71 undefined N/A 30.03 1017 10 16.09344 0 0
8:55 pm 20:55 Clear 46 8 37 3 71 71 undefined N/A 30.03 1017 10 16.09344 0 0
9:15 pm 21:15 Clear 46 8 37 3 71 71 undefined N/A 30.03 1017 10 16.09344 0 0
9:35 pm 21:35 Clear 46 8 37 3 71 71 undefined N/A 30.03 1017 10 16.09344 0 0
9:55 pm 21:55 Clear 45 7 37 3 76 76 undefined N/A 30.03 1017 10 16.09344 0 0
10:15 pm 22:15 Clear 45 7 37 3 76 76 undefined N/A 30.03 1017 10 16.09344 0 0
10:35 pm 22:35 Clear 46 8 37 3 71 71 undefined N/A 30.03 1017 10 16.09344 0 0
10:55 pm 22:55 Partly Cloudy 45 7 37 3 76 76 undefined N/A 30.03 1017 10 16.09344 0 0
11:15 pm 23:15 Partly Cloudy 46 8 37 3 71 71 undefined N/A 30.03 1017 10 16.09344 0 0
11:35 pm 23:35 Clear 45 7 37 3 76 76 undefined N/A 30.03 1017 10 16.09344 0 0
11:55 pm 23:55 Partly Cloudy 43 6 37 3 81 81 undefined N/A 30.03 1017 10 16.09344 0 0

Powered by AerisWeather